Time,TemperatureF,DewpointF,PressureIn,WindDirection,WindDirectionDegrees,WindSpeedMPH,WindSpeedGustMPH,Humidity,HourlyPrecipIn,Conditions,Clouds,dailyrainin,SoftwareType,DateUTC
2013-03-16 00:03:00,57.6,29.0,29.95,WNW,284,13.0,20.0,33,0.00,,,0.00,weatherlink.com 1.10,2013-03-16 06:03:00,
2013-03-16 00:18:00,56.9,29.0,29.95,West,278,6.0,22.0,35,0.00,,,0.00,weatherlink.com 1.10,2013-03-16 06:18:00,
2013-03-16 00:33:00,57.8,29.0,29.94,WNW,290,15.0,24.0,33,0.00,,,0.00,weatherlink.com 1.10,2013-03-16 06:33:00,
2013-03-16 00:48:00,57.3,29.0,29.94,West,268,13.0,18.0,34,0.00,,,0.00,weatherlink.com 1.10,2013-03-16 06:48:00,
2013-03-16 01:03:00,57.0,29.0,29.94,WSW,251,7.0,24.0,34,0.00,,,0.00,weatherlink.com 1.10,2013-03-16 07:03:00,
2013-03-16 01:18:00,58.6,27.0,29.93,SW,219,10.0,20.0,30,0.00,,,0.00,weatherlink.com 1.10,2013-03-16 07:18:00,
2013-03-16 01:33:00,57.8,28.0,29.94,SW,217,7.0,15.0,32,0.00,,,0.00,weatherlink.com 1.10,2013-03-16 07:33:00,
2013-03-16 01:48:00,57.2,28.0,29.96,SSW,193,0.0,9.0,33,0.00,,,0.00,weatherlink.com 1.10,2013-03-16 07:48:00,
2013-03-16 02:04:00,56.5,28.0,29.96,South,173,4.0,5.0,33,0.00,,,0.00,weatherlink.com 1.10,2013-03-16 08:04:00,
2013-03-16 02:19:00,55.7,28.0,29.97,South,172,0.0,0.0,35,0.00,,,0.00,weatherlink.com 1.10,2013-03-16 08:19:00,
2013-03-16 02:34:00,54.5,28.0,29.98,South,172,0.0,2.0,37,0.00,,,0.00,weatherlink.com 1.10,2013-03-16 08:34:00,
2013-03-16 02:49:00,54.4,29.0,29.98,South,172,1.0,1.0,38,0.00,,,0.00,weatherlink.com 1.10,2013-03-16 08:49:00,
2013-03-16 03:04:00,52.6,29.0,29.97,NE,38,4.0,5.0,41,0.00,,,0.00,weatherlink.com 1.10,2013-03-16 09:04:00,
2013-03-16 03:19:00,51.8,29.0,29.98,ENE,65,0.0,5.0,42,0.00,,,0.00,weatherlink.com 1.10,2013-03-16 09:19:00,
2013-03-16 03:34:00,50.6,29.0,29.99,ENE,63,0.0,5.0,43,0.00,,,0.00,weatherlink.com 1.10,2013-03-16 09:34:00,
2013-03-16 03:49:00,49.7,29.0,29.99,ENE,63,0.0,0.0,45,0.00,,,0.00,weatherlink.com 1.10,2013-03-16 09:49:00,
2013-03-16 04:19:00,47.7,29.0,29.99,NE,40,2.0,6.0,49,0.00,,,0.00,weatherlink.com 1.10,2013-03-16 10:19:00,
2013-03-16 04:34:00,47.8,30.0,29.99,West,277,3.0,9.0,50,0.00,,,0.00,weatherlink.com 1.10,2013-03-16 10:34:00,
2013-03-16 04:49:00,46.9,30.0,29.99,West,275,0.0,3.0,52,0.00,,,0.00,weatherlink.com 1.10,2013-03-16 10:49:00,
2013-03-16 05:04:00,46.4,30.0,29.99,West,275,0.0,5.0,53,0.00,,,0.00,weatherlink.com 1.10,2013-03-16 11:04:00,
2013-03-16 05:19:00,45.9,30.0,29.99,West,275,0.0,1.0,55,0.00,,,0.00,weatherlink.com 1.10,2013-03-16 11:19:00,
2013-03-16 05:34:00,45.6,30.0,30.00,NNW,328,1.0,8.0,55,0.00,,,0.00,weatherlink.com 1.10,2013-03-16 11:34:00,
2013-03-16 05:49:00,44.9,30.0,30.00,North,355,4.0,8.0,57,0.00,,,0.00,weatherlink.com 1.10,2013-03-16 11:49:00,
2013-03-16 06:04:00,43.7,30.0,30.00,North,355,4.0,10.0,60,0.00,,,0.00,weatherlink.com 1.10,2013-03-16 12:04:00,
2013-03-16 06:19:00,42.8,31.0,30.00,North,350,7.0,10.0,63,0.00,,,0.00,weatherlink.com 1.10,2013-03-16 12:19:00,
2013-03-16 06:35:00,41.6,31.0,30.01,North,355,5.0,12.0,65,0.00,,,0.00,weatherlink.com 1.10,2013-03-16 12:35:00,
2013-03-16 06:50:00,41.0,30.0,30.00,North,355,6.0,12.0,66,0.00,,,0.00,weatherlink.com 1.10,2013-03-16 12:50:00,
2013-03-16 07:05:00,40.3,30.0,30.00,North,355,4.0,14.0,68,0.00,,,0.00,weatherlink.com 1.10,2013-03-16 13:05:00,
2013-03-16 07:20:00,39.8,31.0,30.00,NNW,344,3.0,9.0,71,0.00,,,0.00,weatherlink.com 1.10,2013-03-16 13:20:00,
2013-03-16 07:35:00,39.4,31.0,30.01,NNW,340,3.0,10.0,73,0.00,,,0.00,weatherlink.com 1.10,2013-03-16 13:35:00,
2013-03-16 07:50:00,39.3,32.0,30.01,NW,311,4.0,9.0,74,0.00,,,0.00,weatherlink.com 1.10,2013-03-16 13:50:00,
2013-03-16 08:05:00,39.4,32.0,30.02,NW,325,3.0,9.0,74,0.00,,,0.00,weatherlink.com 1.10,2013-03-16 14:05:00,
2013-03-16 08:20:00,39.7,32.0,30.02,NW,319,1.0,6.0,73,0.00,,,0.00,weatherlink.com 1.10,2013-03-16 14:20:00,
2013-03-16 08:35:00,40.2,32.0,30.02,NW,315,1.0,6.0,72,0.00,,,0.00,weatherlink.com 1.10,2013-03-16 14:35:00,
2013-03-16 08:50:00,40.5,32.0,30.02,WNW,303,9.0,11.0,71,0.00,,,0.00,weatherlink.com 1.10,2013-03-16 14:50:00,
2013-03-16 09:05:00,40.7,32.0,30.01,WNW,298,7.0,11.0,70,0.00,,,0.00,weatherlink.com 1.10,2013-03-16 15:05:00,
2013-03-16 09:20:00,41.1,31.0,30.01,NW,304,7.0,12.0,68,0.00,,,0.00,weatherlink.com 1.10,2013-03-16 15:20:00,
2013-03-16 09:35:00,41.5,31.0,30.01,NW,304,4.0,12.0,67,0.00,,,0.00,weatherlink.com 1.10,2013-03-16 15:35:00,
2013-03-16 09:50:00,41.7,31.0,30.00,NNW,327,4.0,14.0,67,0.00,,,0.00,weatherlink.com 1.10,2013-03-16 15:50:00,
2013-03-16 10:05:00,41.6,31.0,30.01,NNW,327,3.0,14.0,67,0.00,,,0.00,weatherlink.com 1.10,2013-03-16 16:05:00,
2013-03-16 10:20:00,42.2,31.0,30.00,NNW,332,6.0,13.0,66,0.00,,,0.00,weatherlink.com 1.10,2013-03-16 16:20:00,
2013-03-16 10:35:00,42.8,31.0,30.00,NW,313,4.0,12.0,64,0.00,,,0.00,weatherlink.com 1.10,2013-03-16 16:35:00,
2013-03-16 10:50:00,43.4,31.0,30.00,North,351,9.0,12.0,63,0.00,,,0.00,weatherlink.com 1.10,2013-03-16 16:50:00,
2013-03-16 11:05:00,43.4,31.0,30.00,NNW,344,6.0,9.0,62,0.00,,,0.00,weatherlink.com 1.10,2013-03-16 17:05:00,
2013-03-16 11:20:00,43.6,30.0,29.99,WNW,303,2.0,13.0,60,0.00,,,0.00,weatherlink.com 1.10,2013-03-16 17:20:00,
2013-03-16 11:35:00,44.1,30.0,29.98,NW,315,5.0,10.0,59,0.00,,,0.00,weatherlink.com 1.10,2013-03-16 17:35:00,
2013-03-16 11:50:00,44.8,31.0,29.98,NW,317,4.0,7.0,58,0.00,,,0.00,weatherlink.com 1.10,2013-03-16 17:50:00,
2013-03-16 12:05:00,45.4,31.0,29.96,NNW,340,5.0,10.0,57,0.00,,,0.00,weatherlink.com 1.10,2013-03-16 18:05:00,
2013-03-16 12:20:00,46.2,31.0,29.96,NW,317,5.0,9.0,56,0.00,,,0.00,weatherlink.com 1.10,2013-03-16 18:20:00,
2013-03-16 12:35:00,46.3,32.0,29.95,NW,325,5.0,9.0,57,0.00,,,0.00,weatherlink.com 1.10,2013-03-16 18:35:00,
2013-03-16 12:50:00,46.3,31.0,29.94,NW,317,2.0,11.0,56,0.00,,,0.00,weatherlink.com 1.10,2013-03-16 18:50:00,
2013-03-16 13:05:00,46.3,32.0,29.94,NNW,343,8.0,10.0,58,0.00,,,0.00,weatherlink.com 1.10,2013-03-16 19:05:00,
2013-03-16 13:20:00,46.9,33.0,29.93,NNW,345,4.0,9.0,58,0.00,,,0.00,weatherlink.com 1.10,2013-03-16 19:20:00,
2013-03-16 13:35:00,47.7,32.0,29.92,NNW,346,4.0,9.0,56,0.00,,,0.00,weatherlink.com 1.10,2013-03-16 19:35:00,
2013-03-16 13:50:00,47.6,32.0,29.91,NNW,327,4.0,7.0,55,0.00,,,0.00,weatherlink.com 1.10,2013-03-16 19:50:00,
2013-03-16 14:05:00,47.8,32.0,29.90,NNW,335,0.0,8.0,54,0.00,,,0.00,weatherlink.com 1.10,2013-03-16 20:05:00,
2013-03-16 14:20:00,48.3,32.0,29.89,NNW,335,0.0,4.0,53,0.00,,,0.00,weatherlink.com 1.10,2013-03-16 20:20:00,
2013-03-16 14:35:00,48.1,31.0,29.89,NW,313,0.0,7.0,53,0.00,,,0.00,weatherlink.com 1.10,2013-03-16 20:35:00,
2013-03-16 14:50:00,49.1,32.0,29.88,NW,313,4.0,6.0,52,0.00,,,0.00,weatherlink.com 1.10,2013-03-16 20:50:00,
2013-03-16 15:05:00,49.5,32.0,29.88,NW,313,0.0,4.0,51,0.00,,,0.00,weatherlink.com 1.10,2013-03-16 21:05:00,
2013-03-16 15:20:00,49.2,32.0,29.88,NW,311,0.0,5.0,51,0.00,,,0.00,weatherlink.com 1.10,2013-03-16 21:20:00,
2013-03-16 15:35:00,48.8,32.0,29.88,NW,305,0.0,5.0,52,0.00,,,0.00,weatherlink.com 1.10,2013-03-16 21:35:00,
2013-03-16 15:50:00,49.1,31.0,29.87,NW,305,3.0,3.0,51,0.00,,,0.00,weatherlink.com 1.10,2013-03-16 21:50:00,
2013-03-16 16:05:00,49.4,32.0,29.87,NW,305,0.0,1.0,51,0.00,,,0.00,weatherlink.com 1.10,2013-03-16 22:05:00,
2013-03-16 16:20:00,49.7,32.0,29.86,NW,305,0.0,2.0,51,0.00,,,0.00,weatherlink.com 1.10,2013-03-16 22:20:00,
2013-03-16 16:35:00,50.3,32.0,29.86,NW,305,0.0,2.0,50,0.00,,,0.00,weatherlink.com 1.10,2013-03-16 22:35:00,
2013-03-16 16:50:00,51.2,32.0,29.87,NW,311,3.0,7.0,49,0.00,,,0.00,weatherlink.com 1.10,2013-03-16 22:50:00,
2013-03-16 17:05:00,50.8,33.0,29.87,NW,323,0.0,6.0,50,0.00,,,0.00,weatherlink.com 1.10,2013-03-16 23:05:00,
2013-03-16 17:20:00,51.6,32.0,29.87,North,5,4.0,13.0,48,0.00,,,0.00,weatherlink.com 1.10,2013-03-16 23:20:00,
2013-03-16 17:35:00,51.0,32.0,29.88,North,360,2.0,12.0,49,0.00,,,0.00,weatherlink.com 1.10,2013-03-16 23:35:00,
2013-03-16 17:50:00,50.6,32.0,29.87,North,5,0.0,8.0,50,0.00,,,0.00,weatherlink.com 1.10,2013-03-16 23:50:00,
2013-03-16 18:05:00,50.6,32.0,29.87,NNW,348,0.0,7.0,50,0.00,,,0.00,weatherlink.com 1.10,2013-03-17 00:05:00,
2013-03-16 18:20:00,50.9,33.0,29.87,NNW,348,0.0,0.0,50,0.00,,,0.00,weatherlink.com 1.10,2013-03-17 00:20:00,
2013-03-16 18:35:00,50.2,33.0,29.88,NNW,348,0.0,3.0,51,0.00,,,0.00,weatherlink.com 1.10,2013-03-17 00:35:00,
2013-03-16 18:50:00,49.4,32.0,29.88,NNW,348,0.0,0.0,52,0.00,,,0.00,weatherlink.com 1.10,2013-03-17 00:50:00,
2013-03-16 19:05:00,48.5,32.0,29.87,NNW,348,0.0,0.0,54,0.00,,,0.00,weatherlink.com 1.10,2013-03-17 01:05:00,
2013-03-16 19:20:00,48.0,32.0,29.87,NNW,348,0.0,0.0,55,0.00,,,0.00,weatherlink.com 1.10,2013-03-17 01:20:00,
2013-03-16 19:35:00,47.4,32.0,29.88,NNW,348,0.0,0.0,56,0.00,,,0.00,weatherlink.com 1.10,2013-03-17 01:35:00,
2013-03-16 19:50:00,47.0,32.0,29.88,NNW,348,0.0,0.0,57,0.00,,,0.00,weatherlink.com 1.10,2013-03-17 01:50:00,
2013-03-16 20:05:00,46.7,32.0,29.88,NNW,348,0.0,0.0,57,0.00,,,0.00,weatherlink.com 1.10,2013-03-17 02:05:00,
2013-03-16 20:20:00,45.6,33.0,29.88,NNW,348,1.0,2.0,62,0.00,,,0.00,weatherlink.com 1.10,2013-03-17 02:20:00,
2013-03-16 20:35:00,44.2,33.0,29.88,NNW,344,0.0,4.0,64,0.00,,,0.00,weatherlink.com 1.10,2013-03-17 02:35:00,
2013-03-16 20:50:00,43.6,32.0,29.88,NNW,344,0.0,2.0,65,0.00,,,0.00,weatherlink.com 1.10,2013-03-17 02:50:00,
2013-03-16 21:05:00,43.6,32.0,29.88,NNW,337,2.0,4.0,65,0.00,,,0.00,weatherlink.com 1.10,2013-03-17 03:05:00,
2013-03-16 21:20:00,43.4,33.0,29.88,NNW,331,0.0,5.0,66,0.00,,,0.00,weatherlink.com 1.10,2013-03-17 03:20:00,
2013-03-16 21:35:00,43.2,32.0,29.87,NW,325,0.0,3.0,66,0.00,,,0.00,weatherlink.com 1.10,2013-03-17 03:35:00,
2013-03-16 21:50:00,43.3,33.0,29.88,NW,325,1.0,3.0,66,0.00,,,0.00,weatherlink.com 1.10,2013-03-17 03:50:00,
2013-03-16 22:05:00,43.4,33.0,29.87,NW,325,0.0,3.0,66,0.00,,,0.00,weatherlink.com 1.10,2013-03-17 04:05:00,
2013-03-16 22:20:00,43.2,32.0,29.87,NW,325,0.0,2.0,66,0.00,,,0.00,weatherlink.com 1.10,2013-03-17 04:20:00,
2013-03-16 22:35:00,42.0,32.0,29.87,NW,325,1.0,2.0,67,0.00,,,0.00,weatherlink.com 1.10,2013-03-17 04:35:00,
2013-03-16 22:51:00,41.1,32.0,29.86,NW,325,3.0,3.0,69,0.00,,,0.00,weatherlink.com 1.10,2013-03-17 04:51:00,
2013-03-16 23:06:00,42.5,31.0,29.86,NW,321,3.0,5.0,65,0.00,,,0.00,weatherlink.com 1.10,2013-03-17 05:06:00,
2013-03-16 23:21:00,42.1,31.0,29.86,NW,320,2.0,4.0,64,0.00,,,0.00,weatherlink.com 1.10,2013-03-17 05:21:00,
2013-03-16 23:36:00,41.5,30.0,29.86,NW,320,0.0,1.0,65,0.00,,,0.00,weatherlink.com 1.10,2013-03-17 05:36:00,
2013-03-16 23:51:00,40.9,30.0,29.85,NW,320,3.0,3.0,65,0.00,,,0.00,weatherlink.com 1.10,2013-03-17 05:51:00,